Startseite
Über Mich
AHP4
Galerie
Sehschlangen
Tourenbuch
Bookmarks
Elektronik
Bewertung
Geschichten
[Tagesmessung] [Jahreswerte] [Information]

Messwerte vom 12.06.2022

Die letzten Messwerte von 23:58:47 Uhr:
KategorieMesswert
Temperatur [°C]16
Luftdruck [mBar]1002
Sonneneinstrahlung0
Wind [km/h]1 aus Nordwest
Niederschlag [l/m²]0
rel.Luftfeucht.73.8%
CO2 [ppm]495

Diagramme
Messwerte vom 12.06.2022
Tagesaggregation
KategorieMinimumMaximumSchnittSumme
Temperatur [°C]143220.9625
Luftdruck [mBar]100110061004.1875
Sonneneinstrahlung247142.2646
Wind [km/h]16
rF [%]25.193.960.47
Niederschlag [l/m²]0
CO2 [ppm]404928681.0
Einordnung alsVegetationstag
Sommertag
Heißer Tag

Messungen an benachbarten Tagen: Zur Jahresaggregation 2022
Tabelle aller Messwerte
UhrzeitTemperatur [°C]Luftdruck [mBar]SonneWind [km/h]RichtungRegen [l/m²]rF [%]CO2 [ppm]
00:01:49 16 1006 0 0 NO 0 82.6 762
00:04:48 16 1006 0 0 NO 0 82.6 765
00:07:48 16 1006 0 0 NO 0 82.6 770
00:10:49 16 1006 0 0 NO 0 82.2 773
00:13:47 16 1006 0 0 NO 0 82.1 770
00:16:46 16 1006 0 0 NO 0 82.4 771
00:19:48 16 1006 0 0 NO 0 82.8 779
00:22:47 16 1006 0 0 NO 0 83.4 782
00:25:48 16 1006 0 0 NO 0 83.5 784
00:28:48 16 1005 0 0 NO 0 82.8 780
00:31:48 16 1005 0 0 NO 0 82.9 785
00:34:50 16 1006 0 0 NO 0 82.7 782
00:37:49 16 1006 0 0 NO 0 83.1 776
00:40:49 16 1006 0 0 NO 0 83.1 780
00:43:49 16 1006 0 0 SO 0 82.8 781
00:46:49 16 1006 0 0 SO 0 83.1 787
00:49:48 16 1006 0 1 SO 0 82.6 781
00:52:50 16 1006 0 0 SO 0 82.8 785
00:55:47 16 1006 0 0 SO 0 82.9 790
00:58:49 16 1006 0 0 SO 0 83.3 799
01:01:49 16 1005 0 0 SO 0 83 796
01:04:48 16 1006 0 0 N 0 83.6 802
01:07:51 16 1006 0 0 N 0 84.4 803
01:10:47 16 1006 0 0 N 0 84.4 809
01:13:49 16 1006 0 0 N 0 84.2 802
01:16:45 16 1006 0 0 N 0 84.1 805
01:19:47 16 1006 0 0 N 0 84.4 805
01:22:47 16 1006 0 0 O 0 84.2 805
01:25:46 15 1006 0 0 O 0 84.1 811
01:28:46 15 1006 0 0 O 0 84.1 806
01:31:47 15 1006 0 0 O 0 84.2 808
01:34:47 15 1005 0 0 O 0 83.9 819
01:37:50 15 1006 0 0 O 0 83.3 821
01:40:47 15 1006 0 0 O 0 83.4 826
01:43:49 15 1006 0 0 NW 0 84.7 825
01:46:49 15 1005 0 0 NW 0 85.7 824
01:49:49 15 1006 0 0 NW 0 86.7 816
01:52:49 15 1005 0 0 NW 0 86.4 815
01:55:49 15 1006 0 0 NW 0 86 826
01:58:51 15 1006 0 0 NW 0 86.2 825
02:01:49 15 1006 0 0 NW 0 86.2 831
02:04:47 15 1006 0 0 N 0 86.1 829
02:07:47 15 1006 0 0 N 0 86.1 828
02:10:47 15 1005 0 0 O 0 86.9 824
02:13:50 15 1006 0 0 NO 0 86.8 816
02:16:50 15 1005 0 1 N 0 86.6 815
02:19:47 15 1006 0 0 NO 0 86.2 817
02:22:47 15 1006 0 0 NO 0 86.8 819
02:25:48 15 1005 0 0 NO 0 85.8 821
02:28:48 15 1005 0 0 SO 0 85.4 814
02:31:48 15 1006 0 0 SO 0 85.3 818
02:34:48 15 1006 0 2 SO 0 85.7 813
02:37:49 15 1006 0 0 SO 0 85.9 832
02:40:47 15 1006 0 0 O 0 86.3 831
02:43:46 15 1005 0 0 O 0 86.7 832
02:46:49 15 1005 0 0 O 0 86.6 825
02:49:49 15 1006 0 0 O 0 86.4 831
02:52:48 15 1006 0 0 O 0 86.4 837
02:55:48 15 1006 0 0 O 0 86.6 835
02:58:48 15 1006 0 0 O 0 86.8 829
03:01:48 15 1005 0 0 O 0 86.2 827
03:04:49 15 1006 0 0 O 0 86.2 831
03:07:48 15 1006 0 0 O 0 86.6 827
03:10:50 15 1006 0 0 O 0 86.9 835
03:13:49 15 1005 0 0 O 0 86.7 833
03:16:46 15 1005 0 0 O 0 86.3 840
03:19:47 15 1005 0 0 O 0 87.1 839
03:22:47 15 1005 0 0 O 0 87.1 841
03:25:47 15 1006 0 0 O 0 86.6 841
03:28:44 15 1005 0 0 O 0 87.1 843
03:31:46 15 1005 0 0 O 0 87.2 846
03:34:46 15 1005 0 0 O 0 87 846
03:37:47 15 1006 0 0 O 0 87.8 844
03:40:45 15 1005 0 3 0 88.4 841
03:43:47 15 1005 0 0 NW 0 88.7 849
03:46:48 15 1006 0 0 NW 0 88.2 845
03:49:47 15 1005 0 0 NW 0 88.1 851
03:52:48 15 1006 0 0 N 0 88 849
03:55:48 15 1005 0 0 SO 0 88 849
03:58:47 15 1006 0 0 SO 0 86.9 846
04:01:47 15 1006 0 0 SO 0 86.6 844
04:04:47 15 1005 0 0 SO 0 86.5 840
04:07:48 15 1006 0 0 SO 0 86.4 845
04:10:47 15 1005 0 0 SO 0 86.3 848
04:13:48 15 1005 0 0 SO 0 86.4 852
04:16:48 15 1006 0 0 SO 0 86.4 853
04:19:47 15 1005 0 0 SO 0 86.1 857
04:22:48 15 1005 4 0 SO 0 86.2 858
04:25:48 15 1005 5 0 NW 0 86.7 861
04:28:48 15 1005 8 0 NW 0 87.5 862
04:31:49 15 1005 11 0 NW 0 88.1 858
04:34:47 14 1005 14 3 NW 0 88.3 855
04:37:52 14 1005 19 0 NW 0 89.8 855
04:40:48 14 1006 26 0 NW 0 90.4 850
04:43:49 14 1005 32 0 NW 0 89.6 858
04:46:47 14 1005 40 0 O 0 89.7 857
04:49:47 14 1005 48 0 O 0 90 860
04:52:48 14 1005 55 0 SO 0 90.1 851
04:55:45 14 1006 61 1 N 0 90.4 846
04:58:46 14 1005 67 0 N 0 92.5 848
05:01:48 14 1005 66 0 N 0 93.6 852
05:04:47 14 1006 65 0 N 0 92.5 849
05:07:50 14 1005 67 0 NW 0 92.3 852
05:10:50 14 1005 73 0 NO 0 93.2 855
05:13:48 14 1005 70 0 S 0 93.9 861
05:16:47 14 1005 71 0 S 0 92.5 855
05:19:46 14 1006 78 0 S 0 92.1 856
05:22:48 14 1005 79 0 S 0 91.6 854
05:25:48 14 1006 78 0 S 0 91.4 849
05:28:49 15 1006 84 0 S 0 91.3 852
05:31:48 15 1006 93 0 S 0 91.2 855
05:34:48 15 1006 105 0 S 0 90.9 854
05:37:48 15 1005 117 0 S 0 90.9 857
05:40:45 15 1006 131 0 S 0 91.1 860
05:43:47 15 1005 137 0 S 0 91 862
05:46:47 15 1005 132 0 S 0 90.8 861
05:49:48 15 1006 130 0 S 0 90.6 863
05:52:47 15 1005 132 0 S 0 90.6 864
05:55:49 15 1006 147 0 S 0 90.5 863
05:58:47 15 1005 154 0 S 0 90.3 856
06:01:49 15 1006 160 0 S 0 90.2 856
06:04:49 15 1006 162 0 W 0 90.1 863
06:07:48 15 1005 169 0 W 0 90.2 870
06:10:48 15 1006 165 0 S 0 90.7 870
06:13:48 15 1005 171 0 S 0 90.6 879
06:16:48 15 1006 176 0 S 0 90.5 871
06:19:48 15 1005 178 0 S 0 90.4 866
06:22:47 15 1006 178 0 S 0 90.4 861
06:25:48 15 1006 173 0 S 0 90.4 863
06:28:48 15 1006 172 0 S 0 90.2 870
06:31:49 15 1005 172 0 S 0 90 864
06:34:47 15 1006 173 0 S 0 89.8 860
06:37:49 15 1006 177 0 S 0 89.6 867
06:40:47 15 1006 181 0 S 0 89.6 849
06:43:48 15 1006 181 0 S 0 89.9 805
06:46:48 15 1006 178 0 S 0 90.4 796
06:49:49 15 1005 178 0 S 0 90.4 849
06:52:49 15 1006 183 0 SO 0 90.2 884
06:55:49 15 1005 186 0 S 0 90.2 837
06:58:49 15 1006 187 0 S 0 90.5 766
07:01:48 15 1005 187 0 S 0 90.7 764
07:04:49 15 1006 187 1 SO 0 90.3 826
07:07:51 16 1006 188 0 SW 0 89.8 861
07:10:49 16 1006 188 3 SW 0 89.1 875
07:13:49 16 1006 188 0 SW 0 88.5 899
07:16:50 16 1006 189 0 SW 0 87.9 922
07:19:50 16 1006 189 0 SW 0 87.7 927
07:22:51 16 1006 197 1 SW 0 87.3 913
07:25:50 17 1006 196 0 SW 0 87.3 914
07:28:49 17 1006 195 0 SW 0 86.6 905
07:31:51 18 1005 200 1 SW 0 82.7 922
07:34:49 19 1005 196 0 SW 0 79.7 928
07:37:48 19 1006 194 0 SW 0 77.3 917
07:40:48 20 1005 189 0 S 0 75.4 900
07:43:49 20 1005 190 0 S 0 73.2 892
07:46:50 19 1006 192 0 SW 0 72.7 889
07:49:46 20 1005 191 0 S 0 74.1 881
07:52:48 20 1006 190 0 W 0 74.5 882
07:55:48 21 1006 191 0 S 0 72.5 875
07:58:48 22 1006 190 1 SW 0 71.2 873
08:01:50 22 1006 188 1 NO 0 67.1 864
08:04:50 22 1006 188 3 SW 0 66.5 864
08:07:50 22 1005 187 0 SW 0 65.2 865
08:10:48 21 1006 189 0 O 0 65.3 861
08:13:50 20 1006 190 0 SW 0 67 858
08:16:50 20 1006 190 0 SW 0 68.5 852
08:19:50 19 1005 192 0 SW 0 69.6 849
08:22:50 19 1006 195 2 NW 0 71.1 852
08:25:49 19 1005 201 1 SO 0 71.9 847
08:28:49 19 1006 201 0 W 0 71.6 847
08:31:50 19 1005 201 3 W 0 72.2 844
08:34:48 19 1006 197 0 NW 0 71.5 844
08:37:50 19 1006 202 1 W 0 72.7 846
08:40:48 19 1006 203 5 W 0 72.7 841
08:43:49 19 1006 203 0 S 0 71.8 843
08:46:50 19 1006 202 4 SW 0 69.9 838
08:49:48 19 1006 201 1 S 0 70 838
08:52:51 19 1005 200 0 W 0 70.7 829
08:55:50 19 1006 197 1 SW 0 71.4 826
08:58:47 19 1006 193 0 0 71.1 831
09:01:48 19 1006 195 0 S 0 71.4 835
09:04:50 19 1006 196 1 W 0 71.9 834
09:07:50 20 1006 201 1 W 0 72.2 826
09:10:48 20 1006 199 1 N 0 70 820
09:13:48 20 1005 198 3 S 0 69.7 826
09:16:52 20 1005 202 0 NW 0 71.1 818
09:19:47 20 1005 207 2 S 0 69.1 812
09:22:51 20 1006 207 1 SO 0 68.3 808
09:25:51 20 1006 207 1 NW 0 68.8 806
09:28:50 20 1006 204 2 NW 0 68.2 808
09:31:50 21 1005 205 3 NW 0 66 803
09:34:49 21 1006 206 5 NW 0 63.3 805
09:37:51 21 1006 196 1 NW 0 63.7 803
09:40:49 20 1005 197 5 NW 0 64.1 805
09:43:50 20 1006 203 2 NW 0 63.2 805
09:46:49 20 1006 204 2 SW 0 62.1 810
09:49:51 20 1005 203 8 SW 0 62.6 803
09:52:52 20 1005 203 2 SO 0 61.6 798
09:55:50 21 1006 208 0 SW 0 61.3 785
09:58:49 21 1006 209 0 SW 0 62.1 776
10:01:49 21 1005 207 4 W 0 62.4 787
10:04:49 21 1005 212 2 W 0 54.3 790
10:07:48 21 1006 214 0 W 0 59.4 793
10:10:48 21 1006 211 1 W 0 59.6 785
10:13:47 21 1006 216 3 O 0 58.8 787
10:16:49 21 1006 216 2 NW 0 60.8 784
10:19:50 22 1006 212 2 NW 0 59.7 785
10:22:51 22 1006 215 5 SW 0 58.8 789
10:25:49 22 1005 213 4 NW 0 57.7 777
10:28:49 22 1005 215 0 SO 0 57.7 782
10:31:49 22 1006 219 1 SW 0 58.5 773
10:34:48 22 1005 215 0 SW 0 58.9 776
10:37:48 22 1006 210 2 W 0 57.7 770
10:40:49 22 1006 218 4 NW 0 56.6 767
10:43:49 22 1006 217 1 S 0 56.8 765
10:46:49 22 1005 215 3 SW 0 58.4 771
10:49:49 23 1006 216 1 SW 0 58.1 773
10:52:48 23 1006 222 1 N 0 57.3 759
10:55:49 23 1006 223 3 W 0 56.5 754
10:58:49 24 1006 224 0 SO 0 55.9 759
11:01:48 24 1006 223 4 SW 0 51.1 761
11:04:50 24 1006 223 5 NW 0 50.2 759
11:07:51 23 1006 221 2 SW 0 50.3 753
11:10:47 23 1005 220 1 W 0 52 747
11:13:48 23 1006 219 4 NW 0 53.2 747
11:16:48 24 1006 218 1 SW 0 53.2 747
11:19:48 24 1006 220 0 SO 0 53.3 744
11:22:47 24 1006 222 2 W 0 52.9 753
11:25:48 24 1005 221 4 SW 0 50.7 748
11:28:46 24 1005 217 1 S 0 50.4 750
11:31:48 24 1005 215 6 W 0 51.5 747
11:34:51 24 1006 222 6 NW 0 51.2 744
11:37:47 24 1006 225 2 S 0 51.8 741
11:40:49 25 1005 217 2 N 0 52.5 735
11:43:49 25 1006 211 4 NW 0 50.5 736
11:46:47 24 1005 211 2 W 0 49.8 736
11:49:33 23 1006 221 7 NW 0 40 735
11:52:46 24 1006 222 3 S 0 52.1 730
11:55:47 24 1006 221 1 O 0 51.7 729
11:58:32 23 1006 216 2 W 0 40 722
12:01:50 26 1005 202 3 NW 0 47 720
12:04:48 25 1005 212 1 S 0 49.3 727
12:07:49 26 1005 214 2 SW 0 49.6 731
12:10:49 26 1005 218 3 W 0 48.6 721
12:13:48 27 1005 222 2 NO 0 43.4 709
12:16:48 27 1005 224 1 O 0 43.1 712
12:19:48 27 1004 221 5 SW 0 41.9 720
12:22:47 28 1005 210 3 O 0 41.2 715
12:25:50 27 1005 208 3 SO 0 41.8 710
12:28:51 26 1005 215 1 SW 0 43.3 700
12:31:49 27 1005 217 2 SO 0 44.1 706
12:34:49 28 1005 216 7 SW 0 39.7 705
12:37:47 28 1005 214 1 W 0 39.3 708
12:40:49 28 1005 214 4 SO 0 38.4 705
12:43:51 28 1005 219 2 SW 0 38.1 703
12:46:50 28 1005 220 2 NW 0 38.3 706
12:49:49 28 1005 220 0 W 0 38.6 704
12:52:48 29 1005 223 1 S 0 36.6 703
12:55:49 29 1004 224 2 S 0 37.8 704
12:58:48 29 1005 219 5 SW 0 34.1 703
13:01:32 28 1005 221 3 W 0 40 692
13:04:49 29 1005 213 4 0 36.3 690
13:07:49 28 1004 214 5 NW 0 36.3 691
13:10:51 27 1004 223 2 W 0 39 694
13:13:48 28 1004 220 1 S 0 33 694
13:16:50 28 1005 217 3 SO 0 35.4 693
13:19:50 27 1004 222 6 NO 0 36.2 691
13:22:51 28 1005 225 3 S 0 37.8 689
13:25:49 28 1004 220 2 NO 0 32.7 685
13:28:51 27 1004 221 2 SW 0 37.6 679
13:31:50 26 1004 219 1 W 0 40.2 687
13:34:50 26 1005 223 6 NW 0 40.3 680
13:37:50 27 1004 226 5 NW 0 39.8 688
13:40:47 28 1004 224 3 S 0 37.9 684
13:43:49 28 1005 222 5 S 0 38.6 686
13:46:50 29 1004 224 2 SW 0 33.1 683
13:49:48 29 1004 226 3 NW 0 32.1 682
13:52:31 27 1004 228 9 W 0 40 680
13:55:31 27 1004 230 2 W 0 40 670
13:58:31 27 1004 231 5 SO 0 40 668
14:01:48 30 1004 231 1 SO 0 28.7 665
14:04:50 30 1004 232 3 S 0 30.3 665
14:07:49 30 1004 233 3 W 0 31.6 660
14:10:32 28 1004 234 5 SW 0 40 659
14:13:50 30 1005 235 0 W 0 28.2 645
14:16:48 31 1003 238 3 O 0 29.6 649
14:19:48 31 1003 235 2 SO 0 28.3 646
14:22:48 30 1004 239 3 S 0 26.5 655
14:25:49 30 1005 235 1 SW 0 29.8 657
14:28:48 30 1003 241 4 S 0 30.6 653
14:31:50 30 1004 241 5 NW 0 27.2 653
14:34:47 29 1004 240 1 NW 0 26.8 647
14:37:48 30 1004 241 3 S 0 28.7 651
14:40:49 30 1003 242 3 W 0 28.6 647
14:43:50 30 1004 242 1 SO 0 30.6 645
14:46:47 30 1004 242 3 S 0 28.4 636
14:49:52 30 1003 242 0 SW 0 28 635
14:52:47 30 1004 243 8 S 0 29.1 638
14:55:53 30 1003 243 8 SW 0 28.1 639
14:58:49 30 1004 243 5 W 0 29.9 638
15:01:50 30 1004 243 8 W 0 29.3 639
15:04:46 30 1003 244 1 S 0 29.5 646
15:07:49 31 1003 244 2 NW 0 30.5 636
15:10:50 31 1004 244 4 SW 0 29.8 632
15:13:48 31 1003 244 7 NW 0 29.6 632
15:16:48 31 1003 244 2 SW 0 30.1 623
15:19:48 30 1003 228 2 NO 0 31.4 629
15:22:47 29 1003 241 1 S 0 30.8 627
15:25:48 29 1003 233 5 S 0 33 632
15:28:49 29 1004 232 2 SO 0 34 635
15:31:48 29 1004 227 2 S 0 31.4 641
15:34:48 28 1003 246 3 W 0 31.3 633
15:37:48 28 1002 245 2 O 0 34.4 624
15:40:48 29 1003 229 2 S 0 34.6 618
15:43:49 29 1002 228 14 W 0 32.4 612
15:46:32 28 1003 246 2 NW 0 40 618
15:49:49 29 1003 246 5 W 0 35.1 609
15:52:47 29 1003 239 5 NW 0 33.9 615
15:55:47 29 1002 246 4 S 0 34.2 604
15:58:49 29 1003 245 3 NW 0 33.3 603
16:01:51 30 1002 245 6 W 0 33.4 607
16:04:49 29 1003 226 6 O 0 32.9 603
16:07:49 28 1003 224 2 O 0 33.7 603
16:10:50 27 1003 230 4 NO 0 34.3 600
16:13:49 27 1003 246 5 W 0 36.9 606
16:16:49 28 1003 246 3 SW 0 37 603
16:19:49 29 1003 234 3 W 0 35.5 597
16:22:47 29 1003 247 1 N 0 34.8 591
16:25:48 29 1003 247 2 W 0 34.8 599
16:28:49 29 1003 247 1 SW 0 34 594
16:31:49 29 1002 232 3 NW 0 32.2 591
16:34:47 28 1003 233 4 W 0 31.3 585
16:37:51 28 1003 247 2 NW 0 35.8 586
16:40:32 28 1003 247 7 O 0 40 582
16:43:50 27 1003 247 4 NW 0 34.9 581
16:46:48 27 1002 247 2 NW 0 35.5 576
16:49:48 28 1002 247 2 W 0 35.1 568
16:52:50 29 1003 247 3 W 0 33.9 464
16:55:48 29 1002 229 0 W 0 32.9 459
16:58:48 29 1002 246 5 SW 0 31.4 460
17:01:48 28 1002 234 2 S 0 30.5 466
17:04:47 28 1002 247 2 W 0 32.9 468
17:07:50 29 1002 247 3 NO 0 34 462
17:10:49 30 1002 247 5 O 0 33.8 465
17:13:50 31 1002 247 14 SW 0 29.6 465
17:16:48 31 1002 239 5 W 0 28.2 468
17:19:48 31 1002 247 4 SO 0 26.8 477
17:22:49 32 1002 247 5 SW 0 28 474
17:25:47 31 1003 247 1 O 0 28.4 466
17:28:50 32 1002 229 0 W 0 28.1 468
17:31:50 30 1002 242 1 S 0 27.9 468
17:34:49 29 1002 242 1 SO 0 29.6 474
17:37:49 28 1002 247 3 SW 0 30.7 465
17:40:48 29 1002 247 3 SW 0 29.6 471
17:43:47 29 1003 247 5 NO 0 29.4 468
17:46:47 30 1002 246 1 N 0 28.7 471
17:49:49 30 1002 247 4 W 0 28.5 462
17:52:48 30 1002 247 5 NW 0 29.2 453
17:55:47 31 1002 247 3 W 0 28 454
17:58:48 32 1002 247 0 W 0 27.9 456
18:01:49 32 1002 245 1 O 0 27.4 460
18:04:50 32 1002 245 4 W 0 26.2 457
18:07:50 31 1002 246 2 NW 0 25.7 456
18:10:47 31 1002 247 2 S 0 26.6 457
18:13:50 31 1002 245 2 SO 0 26 465
18:16:47 30 1002 246 1 S 0 26.3 462
18:19:51 31 1002 247 2 NW 0 28 459
18:22:48 32 1002 247 0 W 0 28.1 450
18:25:49 32 1002 246 2 NW 0 26.3 451
18:28:48 32 1002 245 1 NW 0 25.7 448
18:31:48 31 1002 246 1 SO 0 26.8 453
18:34:48 31 1002 246 3 S 0 25.9 456
18:37:49 31 1002 243 3 W 0 25.1 454
18:40:50 29 1002 242 4 W 0 26.5 454
18:43:48 28 1002 246 3 NW 0 27.1 450
18:46:49 27 1002 246 0 NW 0 27.5 456
18:49:48 27 1002 246 0 W 0 28.9 445
18:52:49 26 1002 242 1 NW 0 30.5 445
18:55:50 26 1002 228 2 SO 0 32.5 439
18:58:49 25 1002 227 1 NW 0 32.7 439
19:01:49 24 1002 167 3 W 0 33.2 433
19:04:49 24 1002 169 3 SW 0 35.7 433
19:07:51 24 1002 216 0 NW 0 36 427
19:10:51 23 1002 216 2 SO 0 37.3 416
19:13:47 23 1002 211 0 W 0 37.4 407
19:16:49 23 1002 206 1 NW 0 37.7 407
19:19:49 23 1002 209 4 SO 0 38 419
19:22:52 23 1002 212 2 NW 0 38.2 430
19:25:50 23 1002 225 0 NW 0 38.7 442
19:28:52 22 1002 210 2 W 0 39.9 448
19:31:47 22 1002 203 1 O 0 40.5 462
19:34:47 22 1002 201 1 O 0 41.2 474
19:37:50 22 1002 197 2 SW 0 41.1 490
19:40:48 21 1002 196 2 S 0 41.9 489
19:43:47 21 1002 196 0 NW 0 41.5 500
19:46:48 21 1002 193 1 W 0 42.2 492
19:49:51 21 1002 187 0 SW 0 42.4 492
19:52:49 21 1002 184 0 S 0 43.2 500
19:55:49 21 1002 181 0 S 0 43.6 515
19:58:47 21 1002 180 0 S 0 43.9 515
20:01:47 20 1002 178 0 S 0 44.4 518
20:04:49 20 1002 181 0 S 0 45 527
20:07:49 20 1002 183 1 W 0 45.1 531
20:10:50 20 1002 180 0 SO 0 46 532
20:13:50 20 1002 178 1 SO 0 46.2 536
20:16:49 20 1002 177 0 S 0 46.6 540
20:19:49 20 1002 174 1 SO 0 46.8 544
20:22:47 19 1002 168 0 SW 0 47.1 547
20:25:46 19 1002 162 0 S 0 47.1 556
20:28:48 19 1002 158 0 S 0 47.3 559
20:31:49 19 1002 158 0 S 0 47.5 562
20:34:48 19 1002 159 0 S 0 47.6 563
20:37:47 19 1002 157 0 S 0 47.8 568
20:40:47 19 1002 151 0 S 0 48.5 576
20:43:47 19 1002 153 0 S 0 49 586
20:46:49 18 1002 154 0 S 0 49.6 585
20:49:49 18 1002 155 0 S 0 50.1 589
20:52:49 18 1002 158 0 S 0 50.7 588
20:55:48 18 1002 157 0 S 0 51.2 594
20:58:48 18 1002 156 0 S 0 51.8 600
21:01:47 18 1001 102 0 S 0 52.1 517
21:04:47 18 1002 96 0 S 0 52 404
21:07:47 18 1002 96 0 S 0 52.6 407
21:10:47 18 1002 101 0 SO 0 53.1 404
21:13:48 18 1002 96 0 SO 0 53.5 407
21:16:48 17 1002 92 0 S 0 53.5 407
21:19:47 17 1002 136 0 S 0 54.1 404
21:22:48 17 1002 131 0 S 0 54.4 407
21:25:49 17 1002 121 0 SW 0 54.4 404
21:28:49 17 1002 115 0 SW 0 54.7 404
21:31:48 17 1002 107 0 SW 0 55.3 404
21:34:50 17 1002 96 0 SW 0 56.2 404
21:37:48 17 1002 81 0 SW 0 56.2 407
21:40:50 17 1002 68 0 SW 0 56.5 404
21:43:50 17 1002 56 0 SW 0 56.8 407
21:46:48 17 1002 47 0 SW 0 57.5 404
21:49:49 16 1002 39 0 SW 0 58.1 406
21:52:50 16 1002 32 0 SW 0 58.1 404
21:55:47 16 1002 26 0 NW 0 59.3 407
21:58:47 16 1002 21 1 SO 0 60.7 407
22:01:50 16 1002 17 1 NW 0 62 406
22:04:48 17 1002 13 1 SW 0 63 404
22:07:48 17 1002 10 13 N 0 62.9 407
22:10:49 17 1002 8 9 NW 0 63.2 404
22:13:34 16 1002 6 10 NW 0 53.7 407
22:16:46 18 1002 5 10 N 0 65.7 409
22:19:47 18 1002 0 5 N 0 65.6 416
22:22:48 18 1002 0 13 NW 0 66.1 418
22:25:48 18 1002 0 16 NW 0 67.2 422
22:28:47 18 1002 0 5 NO 0 67.6 421
22:31:45 17 1002 0 5 N 0 67.4 424
22:34:48 17 1002 0 0 SO 0 67.8 421
22:37:48 17 1002 0 7 NW 0 67.6 419
22:40:46 17 1002 0 4 N 0 68.8 404
22:43:46 17 1002 0 4 N 0 68.4 404
22:46:45 17 1002 0 3 N 0 68.4 407
22:49:47 17 1002 0 2 N 0 68.8 409
22:52:48 17 1002 0 2 NO 0 69.1 407
22:55:49 17 1002 0 0 N 0 69.4 404
22:58:48 17 1002 0 2 NO 0 69.3 407
23:01:49 17 1002 0 2 NW 0 69.8 410
23:04:47 17 1002 0 0 NO 0 70.4 416
23:07:48 16 1002 0 0 NW 0 70.5 419
23:10:48 16 1002 0 1 NW 0 70.6 419
23:13:48 16 1002 0 0 NW 0 71.5 430
23:16:47 16 1002 0 3 N 0 72 439
23:19:47 16 1002 0 0 NW 0 71.7 447
23:22:50 16 1002 0 0 NW 0 71.7 448
23:25:45 16 1002 0 0 N 0 71.9 451
23:28:45 16 1002 0 1 N 0 71 457
23:31:47 16 1002 0 0 N 0 71.6 459
23:34:49 16 1002 0 2 N 0 72.2 462
23:37:47 16 1002 0 3 NW 0 72.4 468
23:40:47 16 1002 0 5 N 0 73.1 477
23:43:49 16 1002 0 2 NW 0 73.5 477
23:46:49 16 1002 0 2 NO 0 73.3 486
23:49:50 16 1002 0 4 NW 0 73.2 486
23:52:49 16 1002 0 2 NW 0 73.1 489
23:55:47 16 1002 0 2 N 0 73.2 490
23:58:47 16 1002 0 1 NW 0 73.8 495

Letzte Änderung : 04-Jan-2022
Copyright Jens Köhler, Wolfsburg, Obere Dorfstraße 10d